Weather History for Anchorage Merrill, AK

Change the Weather History Date:

Saturday, October 6, 2012

  Actual Average Record
Temperature  
Mean Temperature 48 °F -  
Max Temperature 52 °F 44 °F 53 °F (2005)
Min Temperature 46 °F 31 °F 28 °F (1993)
Degree Days  
Heating Degree Days 16    
Moisture  
Dew Point 46 °F    
Average Humidity 90    
Maximum Humidity 100    
Minimum Humidity 76    
Precipitation  
Precipitation 0.47 in - - ()
Sea Level Pressure  
Sea Level Pressure 30.22 in    
Wind  
Wind Speed 4 mph (SE)    
Max Wind Speed 9 mph    
Max Gust Speed -    
Visibility 10 miles    
Events Rain    
Averages and records for this station are not official NWS values.
T = Trace of Precipitation, MM = Missing Value Source: NWS Daily Summary

Daily Weather History Graph

Daily Weather History Graph

Search for Another Location

Airport:

Trip Planner

Search our weather history database for the weather conditions in past years. The results will help you decide how hot, cold, wet, or windy it might be!

Date:

Astronomy

Oct. 06, 2012 Rise Set
Actual Time 8:20 AM AKDT 7:12 PM AKDT
Civil Twilight 7:37 AM AKDT 7:56 PM AKDT
Nautical Twilight 6:46 AM AKDT 8:46 PM AKDT
Astronomical Twilight 5:54 AM AKDT 9:37 PM AKDT
Moon 10:17 PM AKDT (10/6) 3:44 PM AKDT (10/6)
Length of Visible Light 12h 18m
Length of Day
10h 52m
Waning Gibbous, 64% of the Moon is Illuminated
Oct 6
Waning Gibbous
Oct 7
Last Quarter
Oct 15
New
Oct 21
First Quarter
Oct 29
Full

Hourly Weather History & Observations

Time (AKDT) Temp. Dew Point Humidity Pressure Visibility Wind Dir Wind Speed Gust Speed Precip Events Conditions
12:53 AM 46.9 °F 46.9 °F 100% 30.13 in 7.0 mi Calm Calm - 0.03 in Rain Light Rain
1:53 AM 46.9 °F 46.9 °F 100% 30.13 in 8.0 mi East 3.5 mph - 0.06 in Rain Rain
2:53 AM 48.0 °F 48.0 °F 100% 30.14 in 9.0 mi South 8.1 mph - 0.13 in Rain Rain
3:53 AM 48.0 °F 46.9 °F 96% 30.14 in 9.0 mi SSE 4.6 mph - 0.12 in Rain Light Rain
4:53 AM 48.0 °F 46.9 °F 96% 30.14 in 9.0 mi South 9.2 mph - 0.07 in Rain Rain
5:53 AM 48.0 °F 46.0 °F 93% 30.14 in 10.0 mi SSE 3.5 mph - 0.05 in Rain Light Rain
6:53 AM 48.0 °F 45.0 °F 89% 30.15 in 10.0 mi South 5.8 mph - 0.01 in Rain Light Rain
7:53 AM 46.9 °F 45.0 °F 93% 30.16 in 10.0 mi South 5.8 mph - 0.00 in Rain Light Rain
8:53 AM 46.9 °F 46.0 °F 97% 30.18 in 10.0 mi SSW 6.9 mph - 0.00 in   Overcast
9:53 AM 46.9 °F 46.0 °F 97% 30.19 in 10.0 mi South 8.1 mph - 0.00 in   Overcast
10:53 AM 48.0 °F 46.0 °F 93% 30.22 in 10.0 mi SSW 6.9 mph - N/A   Overcast
11:53 AM 50.0 °F 46.0 °F 86% 30.24 in 10.0 mi SW 3.5 mph - N/A   Overcast
12:53 PM 50.0 °F 44.1 °F 80% 30.26 in 10.0 mi Calm Calm - N/A   Overcast
1:53 PM 50.0 °F 43.0 °F 77% 30.27 in 10.0 mi Calm Calm - N/A   Overcast
2:53 PM 51.1 °F 45.0 °F 80% 30.27 in 10.0 mi Calm Calm - N/A   Mostly Cloudy
3:42 PM 51.8 °F 44.6 °F 76% 30.26 in 10.0 mi North 5.8 mph - N/A   Overcast
3:53 PM 51.1 °F 46.0 °F 83% 30.27 in 10.0 mi North 4.6 mph - N/A   Overcast
4:53 PM 51.1 °F 46.0 °F 83% 30.27 in 10.0 mi NE 4.6 mph - N/A   Overcast
5:53 PM 51.1 °F 46.0 °F 83% 30.27 in 10.0 mi NNE 5.8 mph - N/A   Overcast
6:53 PM 50.0 °F 45.0 °F 83% 30.26 in 10.0 mi NE 4.6 mph - N/A   Overcast
7:53 PM 48.9 °F 45.0 °F 86% 30.28 in 10.0 mi NE 3.5 mph - N/A   Mostly Cloudy
8:53 PM 48.0 °F 45.0 °F 89% 30.26 in 10.0 mi NNE 3.5 mph - N/A   Mostly Cloudy
9:53 PM 46.0 °F 44.1 °F 93% 30.27 in 10.0 mi Calm Calm - N/A   Mostly Cloudy
10:53 PM 46.0 °F 44.1 °F 93% 30.29 in 10.0 mi Calm Calm - N/A   Overcast
11:53 PM 46.0 °F 44.1 °F 93% 30.29 in 10.0 mi Calm Calm - N/A   Overcast